Location: Il Ritiro
(43.4167°N, 13.1333°E)
Time: 17:12:37
(UTC+00:00)

COSMOS 2428 - Pass Details

Date: 05 July 2020
Orbit: 844 x 859 km, 70.9° (Epoch: 11 August)

Event Time Altitude Azimuth Distance (km) Brightness Sun altitude
Exits shadow 20:15:32 10° 175° (S) 2,459 4.6 -12.5°
Reaches altitude 10° 20:15:32 10° 175° (S) 2,456 4.6 -12.5°
Maximum altitude 20:20:47 41° 107° (ESE) 1,202 3.1 -13.1°
Drops below altitude 10° 20:26:04 10° 38° (NE) 2,473 5.3 -13.7°
Sets 20:28:38 0° 32° (NNE) 3,414 6.1 -14.0°
